Preview of NWS' New Version of Forecast
This preview is not operational and should not be used for support decisions.
Latest weather observations around

Huntsville, Huntsville International / Jones Field (KHSV)

Using English Units (Switch to International System of Units)
Date/ Time (CDT) Wind (mph) Vis. (mi) Weather Sky Cond. Temp (°F) Rel. Humidity Wind Chill (°F) Heat Index (°F) Pressure Precip. (in)
Air Dwpt 6 hour Altimeter (inHg) Sea level (inHg) 1 hr 3 hr 6 hr
Max Min
May 21 14:53 SSE 16 10 Mostly Cloudy SCT044 SCT070 BKN160 82 63     53%   83 30.08 30.06      
May 21 13:53   10 Mostly Cloudy SCT044 SCT070 BKN160 85 63     48%   86 30.09 30.06      
May 21 12:53 S 13 10 Mostly Cloudy SCT036 BKN160 84 65     53%   86 30.11 30.09      
May 21 11:53   10 Mostly Cloudy SCT032 SCT050 BKN160 81 67     62%   83 30.13 30.11      
May 21 10:53 S 10 10 Mostly Cloudy BKN035 BKN046 BKN200 80 66     62%   82 30.14 30.11      
May 21 10:30 7 10 Mostly Cloudy SCT023 SCT029 BKN040 80 67     64%   82 30.13        
May 21 09:53 SE 10 10 Mostly Cloudy BKN025 BKN200 80 68     67%   83 30.13 30.11      
May 21 09:11 SE 14 10 Mostly Cloudy SCT016 SCT022 BKN200 76 68     76%   77 30.13        
May 21 08:53 SSE 11 10 Mostly Cloudy BKN014 BKN200 76 69     79%   77 30.13 30.11      
May 21 07:53 ESE 8 10 Mostly Cloudy FEW025 BKN200 72 69     91%   73 30.12 30.1      
May 21 06:53 ESE 8 10 Partly Cloudy FEW030 FEW150 SCT250 70 67     90%     30.13 30.11      
May 21 05:53 ESE 7 10 Partly Cloudy FEW020 FEW200 SCT250 68 66     93%     30.11 30.09      
May 21 04:53 Calm 10 Clear CLR 69 67     93%     30.1 30.08      
May 21 03:53 SE 6 10 Clear CLR 69 68     96%     30.1 30.07      
May 21 02:53 ESE 6 10 Clear CLR 70 67     90%     30.09 30.06      
May 21 01:53 ESE 5 10 Clear CLR 71 68     90%   72 30.09 30.06      
May 21 00:53 E 5 10 Clear CLR 73 69     87%   74 30.1 30.07     0
May 20 23:53 E 6 10 Cloudy OVC180 73 69     87%   74 30.11 30.09      
May 20 22:53 ESE 6 10 Cloudy OVC180 73 70     90%   74 30.12 30.1      
May 20 21:53 ENE 3 10 Cloudy OVC140 74 71     91%   75 30.12 30.1   0  
May 20 20:53 ESE 6 10 Mostly Cloudy BKN150 74 70     87%   75 30.09 30.06      
May 20 19:53 ESE 5 10 Mostly Cloudy FEW055 SCT090 BKN250 74 69     85%   75 30.07 30.04 0    
May 20 18:53 ENE 6 10 Light Rain FEW070 BKN090 BKN110 76 70     82%   77 30.04 30.02 0   0
May 20 17:53 Calm 10 Mostly Cloudy SCT065 BKN110 76 65     69%   76 30.07 30.05 0    
May 20 17:14 ENE 8 10 Light Rain SCT065 OVC095 77 64     64%   77 30.09   0    
May 20 16:53 ENE 20 10 Thunderstorms and Rain SCT065 BKN080 BKN090 76 64     67%   76 30.07 30.05 0    
May 20 16:49   10 Thunderstorms and Rain SCT065 BKN090 77 64     65%   77 30.07   0    
May 20 16:14 ENE 6 10 Partly Cloudy FEW060 SCT075 SCT090 91 65     42%   93 30.04        
May 20 15:53 ESE 5 10 Partly Cloudy SCT060 SCT250 92 66     43%   95 30.02 29.99   0  
May 20 14:53 WSW 5 10 Partly Cloudy FEW030 SCT046 91 64     41%   93 30.06 30.03      
May 20 13:53 WSW 5 10 Mostly Cloudy FEW030 SCT046 SCT075 BKN250 86 67     53%   89 30.09 30.07 0    
May 20 12:53 SW 6 10 Mostly Cloudy BKN041 BKN050 BKN250 87 68     53%   91 30.11 30.09      
May 20 11:53 Calm 10 Mostly Cloudy SCT036 SCT042 BKN250 87 69     55%   91 30.13 30.1      
May 20 10:53 3 10 Mostly Clear FEW030 FEW250 85 70     61%   89 30.13 30.11      
May 20 09:53 SSW 8 10 Mostly Clear FEW023 FEW250 82 72     72%   87 30.13 30.1      
May 20 08:53 SSE 6 10 Mostly Clear FEW250 79 72     79%   82 30.11 30.09      
May 20 07:53 3 10 Partly Cloudy SCT250 74 70     87%   75 30.11 30.09      
May 20 06:53 E 3 10 Mostly Cloudy FEW120 BKN250 72 69     91%   73 30.1 30.08      
May 20 05:53 Calm 10 Mostly Cloudy SCT150 BKN250 70 68     93%     30.09 30.07      
May 20 04:53 E 5 10 Clear CLR 70 68     93%     30.07 30.05      
May 20 03:53 ENE 3 10 Clear CLR 71 69     93%   72 30.05 30.02      
May 20 02:53 Calm 10 Clear CLR 72 69     91%   73 30.04 30.01      
May 20 01:53 WNW 5 10 Clear CLR 73 70     90%   74 30.05 30.03      
May 20 00:53 NNE 5 10 Clear CLR 74 70     87%   75 30.05 30.03      
May 19 23:53 SSE 8 10 Partly Cloudy SCT180 76 69     79%   77 30.07 30.04      
May 19 22:53 NE 6 10 Mostly Cloudy FEW055 SCT120 BKN150 78 69     74%   79 30.08 30.06      
May 19 21:53 NNW 9 10 Mostly Cloudy BKN055 BKN065 79 69     72%   80 30.07 30.04      
May 19 20:53 WSW 3 10 Partly Cloudy FEW080 SCT250 77 71     82%   78 30.03 30.01      
May 19 19:53 Calm 10 Partly Cloudy FEW080 SCT250 83 68     61%   86 30.02 29.99      
May 19 18:53 Calm 10 Mostly Cloudy FEW065 BKN250 85 68     57%   88 30.01 29.99      
May 19 17:53 SW 7 10 Partly Cloudy FEW065 SCT250 87 65     48%   89 29.99 29.96      
May 19 16:53 WSW 3 10 Partly Cloudy SCT060 88 64     45%   89 29.98 29.96      
May 19 15:53 3 10 Partly Cloudy SCT065 88 65     47%   90 29.97 29.95      
May 19 14:53 WSW 8 10 Partly Cloudy SCT050 SCT080 89 65     45%   91 29.99 29.96      
May 19 13:53 W 7 10 Partly Cloudy SCT046 SCT250 87 64     46%   88 30 29.98      
May 19 12:53 S 9 10 Partly Cloudy FEW047 SCT060 SCT200 86 66     51%   88 30.01 29.98      
May 19 11:53 SW 8 10 Mostly Cloudy SCT038 BKN049 BKN200 84 66     55%   86 30.02 30      
May 19 11:20 SW 8 10 Mostly Cloudy BKN034 83 68     61%   86 30.02        
May 19 10:53 7 10 Mostly Cloudy BKN027 82 68     63%   85 30.02 30      
May 19 09:53 SW 9 10 Mostly Clear FEW020 80 70     71%   83 30.02 30      
May 19 08:53 S 6 10 Clear CLR 76 70     82%   77 30.02 30      
May 19 07:53 SSE 5 10 Mostly Clear FEW100 73 69     87%   74 30.01 29.99      
May 19 06:53 SE 3 10 Mostly Clear FEW050 70 68     93%     29.98 29.96      
May 19 05:53 SE 6 8 Mostly Clear FEW045 67 67     100%     29.97 29.95      
May 19 04:53 Calm 10 Clear CLR 68 67     96%     29.95 29.93      
May 19 03:53 SE 5 9 Clear CLR 68 68     100%     29.94 29.92      
May 19 02:53 SSE 3 10 Partly Cloudy SCT032 69 68     96%     29.92 29.91      
May 19 01:53 SSE 5 10 Partly Cloudy FEW033 SCT046 70 68     93%     29.91 29.88      
May 19 00:53 SSE 5 10 Mostly Clear FEW050 70 69     97%     29.9 29.88     0
May 18 23:53 SSE 3 10 Mostly Cloudy BKN070 71 70     96%   72 29.92 29.89      
May 18 22:53 SSE 5 10 Mostly Cloudy BKN090 71 70     96%   72 29.91 29.89      
May 18 21:53 Calm 10 Mostly Cloudy FEW029 SCT100 BKN140 72 70     93%   73 29.9 29.87   0  
May 18 20:53 E 3 10 Mostly Cloudy SCT070 BKN085 BKN250 72 70     93%   73 29.88 29.86 0    
May 18 19:53 Calm 10 Mostly Cloudy SCT070 BKN110 74 69     85%   75 29.86 29.84      
May 18 18:53 NW 3 10 Mostly Cloudy FEW041 BKN090 BKN250 75 69     82%   76 29.85 29.83     0
May 18 17:53 NNW 6 10 Mostly Cloudy FEW095 BKN120 BKN250 75 69     82%   76 29.85 29.83      
May 18 16:53 SW 7 10 Mostly Cloudy FEW095 BKN120 78 68     71%   79 29.85 29.82 0    
May 18 16:26 Calm 10 Mostly Cloudy FEW065 BKN090 BKN120 74 69     85%   75 29.85   0    
May 18 16:19 W 3 10 Light Rain FEW065 BKN090 BKN120 74 69     85%   75 29.85   0    
May 18 15:58 SSW 6 10 Thunderstorms FEW080 BKN100 76 68     76%   77 29.84        
May 18 15:53 SSW 7 10 Mostly Cloudy SCT080 BKN100 76 69     79%   77 29.84 29.82 0 0  
May 18 14:43 WSW 6 3 Rain FEW030 BKN050 OVC090 72 67     84%   73 29.85   0    
May 18 13:53   10 Mostly Cloudy BKN038 BKN047 80 67     64%   82 29.85 29.83      
May 15 04:53 Calm 10 Mostly Cloudy BKN065 70 68     93%     29.98 29.96      
May 14 10:53 N 8 10 Mostly Clear FEW050 88 64     45%   89 30.07 30.04      
May 11 20:53 S 8 10 Clear CLR 75 60     60%   75 30.05 30.03      
May 11 16:53 SW 11 10 Mostly Clear FEW090 89 57     34%   88 30.04 30.01      
Jun 12 04:53 SE 7 10 Partly Cloudy SCT025 72 70     93%   73 30.13 30.1      
Jun 11 22:53 ESE 3 10 Clear CLR 78 70     76%   79 30.12 30.09      
Jun 10 17:53 S 10 10 Partly Cloudy FEW060 SCT 85 61     45%   85 30.03 30.01      
Jun 09 19:53 W 3 10 Mostly Clear FEW080 77 60     56%   77   29.92      
Jun 08 19:53 NNW 6 10 Partly Cloudy SCT250 73 56     55%   73 29.89 29.87      
Jun 07 10:53 NE 17 10 Mostly Clear FEW050 FEW250 78 53     42%   78 29.89 29.87